Simultaneous Nadir Overpasses (SNOs) Predictions

Prediction of SNOs between GOES-17 and METOP-C Satellite Orbit:

Table of predicted SNOs for the next 14.0 days since TLE Epoch: 4/27/2024
Index Date Time (GOES-17) GOES-17 Lat,Lon METOP-C Lat,Lon Distance(km) Time Diff (sec)
1 04/27/2024 04:18:54 0.01,-104.70 0.53,-102.45 256.43 8
2 04/28/2024 16:36:34 -0.00,-104.70 0.54,-107.00 262.50 80
3 04/29/2024 16:18:36 -0.00,-104.70 -0.60,-102.01 306.51 80
4 05/01/2024 04:37:36 0.00,-104.69 -0.43,-106.60 218.21 80
5 05/02/2024 04:14:17 0.00,-104.68 0.66,-101.60 350.74 80
6 05/03/2024 16:33:10 -0.00,-104.69 0.31,-106.17 167.97 80
7 05/04/2024 16:15:10 -0.00,-104.69 -0.79,-101.17 401.40 80
8 05/06/2024 04:34:11 -0.00,-104.68 -0.22,-105.76 122.63 80
9 05/07/2024 04:10:51 -0.00,-104.68 0.89,-100.76 446.69 80
10 05/08/2024 16:29:43 0.01,-104.69 0.16,-105.31 71.74 80
11 05/09/2024 16:11:43 0.01,-104.69 -0.96,-100.32 497.63 80
